Time,TemperatureF,DewpointF,PressureIn,WindDirection,WindDirectionDegrees,WindSpeedMPH,WindSpeedGustMPH,Humidity,HourlyPrecipIn,Conditions,Clouds,dailyrainin,SoftwareType,DateUTC
2013-04-01 00:02:00,50.0,35.0,-100.00,NNW,345,4.0,6.0,55,-99.99,,,-99.99,,2013-04-01 05:02:00,
2013-04-01 00:12:00,50.0,32.0,-100.00,NNW,345,8.0,12.0,51,-99.99,,,-99.99,,2013-04-01 05:12:00,
2013-04-01 00:22:00,50.0,32.0,-100.00,NNW,345,8.0,12.0,51,-99.99,,,-99.99,,2013-04-01 05:22:00,
2013-04-01 00:43:00,48.0,31.0,-100.00,NNW,335,8.0,10.0,51,-99.99,,,-99.99,,2013-04-01 05:43:00,
2013-04-01 00:53:00,47.0,30.0,-100.00,NNW,330,9.0,14.0,51,-99.99,,,-99.99,,2013-04-01 05:53:00,
2013-04-01 01:02:00,47.0,30.0,-100.00,NNW,330,9.0,14.0,51,-99.99,,,-99.99,,2013-04-01 06:02:00,
2013-04-01 01:12:00,47.0,30.0,-100.00,NW,320,8.0,14.0,52,-99.99,,,-99.99,,2013-04-01 06:12:00,
2013-04-01 01:23:00,46.0,29.0,-100.00,NW,325,6.0,9.0,53,-99.99,,,-99.99,,2013-04-01 06:23:00,
2013-04-01 01:33:00,46.0,29.0,-100.00,NW,325,6.0,9.0,53,-99.99,,,-99.99,,2013-04-01 06:33:00,
2013-04-01 01:43:00,45.0,29.0,-100.00,NW,310,4.0,8.0,54,-99.99,,,-99.99,,2013-04-01 06:43:00,
2013-04-01 01:53:00,44.0,29.0,-100.00,NNW,340,9.0,12.0,55,-99.99,,,-99.99,,2013-04-01 06:53:00,
2013-04-01 02:02:00,44.0,29.0,-100.00,NNW,340,9.0,12.0,55,-99.99,,,-99.99,,2013-04-01 07:02:00,
2013-04-01 02:12:00,44.0,28.0,-100.00,NNW,330,6.0,10.0,54,-99.99,,,-99.99,,2013-04-01 07:12:00,
2013-04-01 02:22:00,43.0,28.0,-100.00,NNW,335,10.0,14.0,54,-99.99,,,-99.99,,2013-04-01 07:22:00,
2013-04-01 02:32:00,43.0,28.0,-100.00,NNW,335,10.0,14.0,54,-99.99,,,-99.99,,2013-04-01 07:32:00,
2013-04-01 02:42:00,43.0,28.0,-100.00,NW,310,6.0,8.0,54,-99.99,,,-99.99,,2013-04-01 07:42:00,
2013-04-01 02:53:00,43.0,28.0,-100.00,NNW,345,6.0,10.0,56,-99.99,,,-99.99,,2013-04-01 07:53:00,
2013-04-01 03:03:00,43.0,28.0,-100.00,NNW,345,6.0,10.0,56,-99.99,,,-99.99,,2013-04-01 08:03:00,
2013-04-01 03:12:00,42.0,29.0,-100.00,NNW,330,9.0,11.0,58,-99.99,,,-99.99,,2013-04-01 08:12:00,
2013-04-01 03:22:00,42.0,29.0,-100.00,North,0,4.0,6.0,60,-99.99,,,-99.99,,2013-04-01 08:22:00,
2013-04-01 03:32:00,42.0,29.0,-100.00,North,0,4.0,6.0,60,-99.99,,,-99.99,,2013-04-01 08:32:00,
2013-04-01 03:43:00,42.0,29.0,-100.00,NNW,330,6.0,10.0,61,-99.99,,,-99.99,,2013-04-01 08:43:00,
2013-04-01 03:53:00,41.0,30.0,-100.00,NW,325,9.0,16.0,63,-99.99,,,-99.99,,2013-04-01 08:53:00,
2013-04-01 04:02:00,41.0,30.0,-100.00,NW,325,9.0,16.0,63,-99.99,,,-99.99,,2013-04-01 09:02:00,
2013-04-01 04:12:00,41.0,29.0,-100.00,NNW,340,6.0,9.0,63,-99.99,,,-99.99,,2013-04-01 09:12:00,
2013-04-01 04:22:00,41.0,29.0,-100.00,NW,320,10.0,16.0,63,-99.99,,,-99.99,,2013-04-01 09:22:00,
2013-04-01 04:33:00,41.0,29.0,-100.00,NW,320,10.0,16.0,63,-99.99,,,-99.99,,2013-04-01 09:33:00,
2013-04-01 04:42:00,41.0,28.0,-100.00,North,0,12.0,18.0,60,-99.99,,,-99.99,,2013-04-01 09:42:00,
2013-04-01 04:53:00,40.0,28.0,-100.00,North,0,10.0,14.0,60,-99.99,,,-99.99,,2013-04-01 09:53:00,
2013-04-01 05:03:00,40.0,28.0,-100.00,North,0,10.0,14.0,60,-99.99,,,-99.99,,2013-04-01 10:03:00,
2013-04-01 05:12:00,40.0,26.0,-100.00,North,0,12.0,14.0,58,-99.99,,,-99.99,,2013-04-01 10:12:00,
2013-04-01 05:23:00,39.0,26.0,-100.00,North,0,16.0,21.0,58,-99.99,,,-99.99,,2013-04-01 10:23:00,
2013-04-01 05:33:00,39.0,26.0,-100.00,North,0,16.0,21.0,58,-99.99,,,-99.99,,2013-04-01 10:33:00,
2013-04-01 05:42:00,39.0,26.0,-100.00,North,350,9.0,10.0,59,-99.99,,,-99.99,,2013-04-01 10:42:00,
2013-04-01 05:53:00,39.0,26.0,-100.00,NNW,345,9.0,11.0,59,-99.99,,,-99.99,,2013-04-01 10:53:00,
2013-04-01 06:03:00,39.0,26.0,-100.00,NNW,345,9.0,11.0,59,-99.99,,,-99.99,,2013-04-01 11:03:00,
2013-04-01 06:13:00,39.0,26.0,-100.00,NNW,340,4.0,8.0,59,-99.99,,,-99.99,,2013-04-01 11:13:00,
2013-04-01 06:23:00,39.0,26.0,-100.00,North,355,8.0,12.0,60,-99.99,,,-99.99,,2013-04-01 11:23:00,
2013-04-01 06:33:00,39.0,26.0,-100.00,North,355,8.0,12.0,60,-99.99,,,-99.99,,2013-04-01 11:33:00,
2013-04-01 06:42:00,39.0,26.0,-100.00,North,0,9.0,14.0,59,-99.99,,,-99.99,,2013-04-01 11:42:00,
2013-04-01 06:53:00,38.0,25.0,-100.00,North,0,14.0,18.0,59,-99.99,,,-99.99,,2013-04-01 11:53:00,
2013-04-01 07:02:00,38.0,25.0,-100.00,North,0,14.0,18.0,59,-99.99,,,-99.99,,2013-04-01 12:02:00,
2013-04-01 07:12:00,38.0,26.0,-100.00,North,0,6.0,9.0,61,-99.99,,,-99.99,,2013-04-01 12:12:00,
2013-04-01 07:23:00,37.0,26.0,-100.00,NNW,330,9.0,11.0,62,-99.99,,,-99.99,,2013-04-01 12:23:00,
2013-04-01 07:32:00,37.0,26.0,-100.00,NNW,330,9.0,11.0,62,-99.99,,,-99.99,,2013-04-01 12:32:00,
2013-04-01 07:42:00,37.0,26.0,-100.00,NW,315,10.0,16.0,62,-99.99,,,-99.99,,2013-04-01 12:42:00,
2013-04-01 07:53:00,37.0,24.0,-100.00,NW,320,10.0,12.0,58,-99.99,,,-99.99,,2013-04-01 12:53:00,
2013-04-01 08:03:00,37.0,24.0,-100.00,NW,320,10.0,12.0,58,-99.99,,,-99.99,,2013-04-01 13:03:00,
2013-04-01 08:12:00,38.0,24.0,-100.00,NNW,330,6.0,9.0,58,-99.99,,,-99.99,,2013-04-01 13:12:00,
2013-04-01 08:22:00,38.0,24.0,-100.00,NW,305,6.0,11.0,58,-99.99,,,-99.99,,2013-04-01 13:22:00,
2013-04-01 08:32:00,38.0,24.0,-100.00,NW,305,6.0,11.0,58,-99.99,,,-99.99,,2013-04-01 13:32:00,
2013-04-01 08:42:00,38.0,24.0,-100.00,NW,305,6.0,11.0,58,-99.99,,,-99.99,,2013-04-01 13:42:00,
2013-04-01 08:53:00,38.0,23.0,-100.00,NNW,345,6.0,9.0,55,-99.99,,,-99.99,,2013-04-01 13:53:00,
2013-04-01 09:04:00,38.0,23.0,-100.00,NNW,345,6.0,9.0,55,-99.99,,,-99.99,,2013-04-01 14:04:00,
2013-04-01 09:12:00,39.0,23.0,-100.00,NNW,345,12.0,14.0,54,-99.99,,,-99.99,,2013-04-01 14:12:00,
2013-04-01 09:22:00,39.0,23.0,-100.00,North,0,12.0,17.0,52,-99.99,,,-99.99,,2013-04-01 14:22:00,
2013-04-01 09:33:00,39.0,23.0,-100.00,North,0,12.0,17.0,52,-99.99,,,-99.99,,2013-04-01 14:33:00,
2013-04-01 09:42:00,39.0,23.0,-100.00,NW,315,10.0,12.0,52,-99.99,,,-99.99,,2013-04-01 14:42:00,
2013-04-01 09:53:00,40.0,24.0,-100.00,NW,315,8.0,10.0,52,-99.99,,,-99.99,,2013-04-01 14:53:00,
2013-04-01 10:03:00,40.0,24.0,-100.00,NW,315,8.0,10.0,52,-99.99,,,-99.99,,2013-04-01 15:03:00,
2013-04-01 10:13:00,40.0,24.0,-100.00,North,0,6.0,10.0,52,-99.99,,,-99.99,,2013-04-01 15:13:00,
2013-04-01 10:22:00,40.0,23.0,-100.00,North,0,10.0,14.0,50,-99.99,,,-99.99,,2013-04-01 15:22:00,
2013-04-01 10:34:00,40.0,23.0,-100.00,North,0,10.0,14.0,50,-99.99,,,-99.99,,2013-04-01 15:34:00,
2013-04-01 10:43:00,42.0,23.0,-100.00,NNW,345,9.0,14.0,47,-99.99,,,-99.99,,2013-04-01 15:43:00,
2013-04-01 10:54:00,42.0,24.0,-100.00,North,0,9.0,12.0,48,-99.99,,,-99.99,,2013-04-01 15:54:00,
2013-04-01 11:03:00,42.0,24.0,-100.00,North,0,9.0,12.0,48,-99.99,,,-99.99,,2013-04-01 16:03:00,
2013-04-01 11:13:00,42.0,23.0,-100.00,NNW,330,8.0,11.0,46,-99.99,,,-99.99,,2013-04-01 16:13:00,
2013-04-01 11:23:00,43.0,23.0,-100.00,North,0,6.0,12.0,45,-99.99,,,-99.99,,2013-04-01 16:23:00,
2013-04-01 11:33:00,43.0,23.0,-100.00,North,0,6.0,12.0,45,-99.99,,,-99.99,,2013-04-01 16:33:00,
2013-04-01 11:43:00,43.0,23.0,-100.00,North,0,6.0,12.0,45,-99.99,,,-99.99,,2013-04-01 16:43:00,
2013-04-01 12:42:00,44.0,23.0,-100.00,NW,305,9.0,16.0,44,-99.99,,,-99.99,,2013-04-01 17:42:00,
2013-04-01 12:53:00,45.0,23.0,-100.00,North,0,6.0,9.0,42,-99.99,,,-99.99,,2013-04-01 17:53:00,
2013-04-01 13:02:00,45.0,23.0,-100.00,North,0,6.0,9.0,42,-99.99,,,-99.99,,2013-04-01 18:02:00,
2013-04-01 13:12:00,45.0,23.0,-100.00,WNW,285,4.0,9.0,42,-99.99,,,-99.99,,2013-04-01 18:12:00,
2013-04-01 13:22:00,44.0,22.0,-100.00,NW,310,12.0,17.0,41,-99.99,,,-99.99,,2013-04-01 18:22:00,
2013-04-01 13:32:00,44.0,22.0,-100.00,NW,310,12.0,17.0,41,-99.99,,,-99.99,,2013-04-01 18:32:00,
2013-04-01 13:42:00,45.0,22.0,-100.00,North,0,6.0,8.0,40,-99.99,,,-99.99,,2013-04-01 18:42:00,
2013-04-01 13:53:00,45.0,22.0,-100.00,NNW,330,14.0,18.0,39,-99.99,,,-99.99,,2013-04-01 18:53:00,
2013-04-01 14:03:00,45.0,22.0,-100.00,NNW,330,14.0,18.0,39,-99.99,,,-99.99,,2013-04-01 19:03:00,
2013-04-01 14:12:00,45.0,22.0,-100.00,NW,310,9.0,14.0,39,-99.99,,,-99.99,,2013-04-01 19:12:00,
2013-04-01 14:23:00,46.0,22.0,-100.00,NW,310,9.0,14.0,39,-99.99,,,-99.99,,2013-04-01 19:23:00,
2013-04-01 14:32:00,46.0,22.0,-100.00,NW,310,9.0,14.0,39,-99.99,,,-99.99,,2013-04-01 19:32:00,
2013-04-01 14:42:00,45.0,21.0,-100.00,North,0,6.0,10.0,38,-99.99,,,-99.99,,2013-04-01 19:42:00,
2013-04-01 14:53:00,45.0,21.0,-100.00,WNW,300,6.0,12.0,39,-99.99,,,-99.99,,2013-04-01 19:53:00,
2013-04-01 15:02:00,45.0,21.0,-100.00,WNW,300,6.0,12.0,39,-99.99,,,-99.99,,2013-04-01 20:02:00,
2013-04-01 15:13:00,46.0,22.0,-100.00,West,280,14.0,18.0,39,-99.99,,,-99.99,,2013-04-01 20:13:00,
2013-04-01 15:22:00,46.0,23.0,-100.00,NNW,345,8.0,11.0,39,-99.99,,,-99.99,,2013-04-01 20:22:00,
2013-04-01 15:32:00,46.0,23.0,-100.00,NNW,345,8.0,11.0,39,-99.99,,,-99.99,,2013-04-01 20:32:00,
2013-04-01 15:42:00,46.0,23.0,-100.00,WNW,300,10.0,14.0,39,-99.99,,,-99.99,,2013-04-01 20:42:00,
2013-04-01 15:52:00,46.0,23.0,-100.00,NW,325,12.0,16.0,39,-99.99,,,-99.99,,2013-04-01 20:52:00,
2013-04-01 16:02:00,46.0,23.0,-100.00,NW,325,12.0,16.0,39,-99.99,,,-99.99,,2013-04-01 21:02:00,
2013-04-01 16:12:00,47.0,23.0,-100.00,NW,320,14.0,18.0,38,-99.99,,,-99.99,,2013-04-01 21:12:00,
2013-04-01 16:23:00,47.0,23.0,-100.00,North,0,9.0,11.0,38,-99.99,,,-99.99,,2013-04-01 21:23:00,
2013-04-01 16:32:00,47.0,23.0,-100.00,North,0,9.0,11.0,38,-99.99,,,-99.99,,2013-04-01 21:32:00,
2013-04-01 16:43:00,46.0,22.0,-100.00,WNW,290,6.0,9.0,38,-99.99,,,-99.99,,2013-04-01 21:43:00,
2013-04-01 16:53:00,47.0,22.0,-100.00,NW,305,6.0,10.0,37,-99.99,,,-99.99,,2013-04-01 21:53:00,
2013-04-01 17:02:00,47.0,22.0,-100.00,NW,305,6.0,10.0,37,-99.99,,,-99.99,,2013-04-01 22:02:00,
2013-04-01 17:12:00,47.0,22.0,-100.00,WNW,295,12.0,18.0,37,-99.99,,,-99.99,,2013-04-01 22:12:00,
2013-04-01 17:22:00,47.0,22.0,-100.00,NNW,340,12.0,17.0,37,-99.99,,,-99.99,,2013-04-01 22:22:00,
2013-04-01 17:33:00,47.0,22.0,-100.00,NNW,340,12.0,17.0,37,-99.99,,,-99.99,,2013-04-01 22:33:00,
2013-04-01 17:43:00,46.0,21.0,-100.00,NW,310,9.0,12.0,36,-99.99,,,-99.99,,2013-04-01 22:43:00,
2013-04-01 17:52:00,47.0,21.0,-100.00,NW,320,11.0,16.0,36,-99.99,,,-99.99,,2013-04-01 22:52:00,
2013-04-01 18:02:00,47.0,21.0,-100.00,NW,320,11.0,16.0,36,-99.99,,,-99.99,,2013-04-01 23:02:00,
2013-04-01 18:12:00,46.0,20.0,-100.00,NNW,335,6.0,11.0,35,-99.99,,,-99.99,,2013-04-01 23:12:00,
2013-04-01 18:23:00,46.0,20.0,-100.00,NW,320,9.0,12.0,36,-99.99,,,-99.99,,2013-04-01 23:23:00,
2013-04-01 18:32:00,46.0,20.0,-100.00,NW,320,9.0,12.0,36,-99.99,,,-99.99,,2013-04-01 23:32:00,
2013-04-01 18:43:00,45.0,21.0,-100.00,NW,315,10.0,14.0,37,-99.99,,,-99.99,,2013-04-01 23:43:00,
2013-04-01 18:53:00,46.0,21.0,-100.00,NW,310,8.0,14.0,37,-99.99,,,-99.99,,2013-04-01 23:53:00,
2013-04-01 19:03:00,46.0,21.0,-100.00,NW,310,8.0,14.0,37,-99.99,,,-99.99,,2013-04-02 00:03:00,
2013-04-01 19:12:00,45.0,21.0,-100.00,WNW,300,10.0,14.0,37,-99.99,,,-99.99,,2013-04-02 00:12:00,
2013-04-01 19:22:00,45.0,20.0,-100.00,NW,315,6.0,10.0,37,-99.99,,,-99.99,,2013-04-02 00:22:00,
2013-04-01 19:33:00,45.0,20.0,-100.00,NW,315,6.0,10.0,37,-99.99,,,-99.99,,2013-04-02 00:33:00,
2013-04-01 19:42:00,44.0,20.0,-100.00,NW,310,4.0,8.0,37,-99.99,,,-99.99,,2013-04-02 00:42:00,
2013-04-01 19:53:00,43.0,20.0,-100.00,NW,310,4.0,6.0,39,-99.99,,,-99.99,,2013-04-02 00:53:00,
2013-04-01 20:02:00,43.0,20.0,-100.00,NW,310,4.0,6.0,39,-99.99,,,-99.99,,2013-04-02 01:02:00,
2013-04-01 20:12:00,43.0,20.0,-100.00,NW,320,6.0,6.0,40,-99.99,,,-99.99,,2013-04-02 01:12:00,
2013-04-01 20:22:00,42.0,20.0,-100.00,NNW,330,3.0,4.0,41,-99.99,,,-99.99,,2013-04-02 01:22:00,
2013-04-01 20:32:00,42.0,20.0,-100.00,NNW,330,3.0,4.0,41,-99.99,,,-99.99,,2013-04-02 01:32:00,
2013-04-01 20:42:00,41.0,20.0,-100.00,NW,310,3.0,4.0,42,-99.99,,,-99.99,,2013-04-02 01:42:00,
2013-04-01 20:53:00,41.0,21.0,-100.00,WNW,285,3.0,4.0,45,-99.99,,,-99.99,,2013-04-02 01:53:00,
2013-04-01 21:02:00,41.0,21.0,-100.00,WNW,285,3.0,4.0,45,-99.99,,,-99.99,,2013-04-02 02:02:00,
2013-04-01 21:12:00,41.0,21.0,-100.00,WNW,300,4.0,6.0,46,-99.99,,,-99.99,,2013-04-02 02:12:00,
2013-04-01 21:22:00,40.0,22.0,-100.00,NW,325,3.0,4.0,47,-99.99,,,-99.99,,2013-04-02 02:22:00,
2013-04-01 21:32:00,40.0,22.0,-100.00,NW,325,3.0,4.0,47,-99.99,,,-99.99,,2013-04-02 02:32:00,
2013-04-01 21:42:00,40.0,21.0,-100.00,NW,310,3.0,3.0,47,-99.99,,,-99.99,,2013-04-02 02:42:00,
2013-04-01 21:53:00,39.0,21.0,-100.00,NW,325,1.0,2.0,48,-99.99,,,-99.99,,2013-04-02 02:53:00,
2013-04-01 22:02:00,39.0,21.0,-100.00,NW,325,1.0,2.0,48,-99.99,,,-99.99,,2013-04-02 03:02:00,
2013-04-01 22:12:00,39.0,21.0,-100.00,North,350,4.0,6.0,48,-99.99,,,-99.99,,2013-04-02 03:12:00,
2013-04-01 22:22:00,39.0,20.0,-100.00,NNW,330,4.0,6.0,47,-99.99,,,-99.99,,2013-04-02 03:22:00,
2013-04-01 22:33:00,39.0,20.0,-100.00,NNW,330,4.0,6.0,47,-99.99,,,-99.99,,2013-04-02 03:33:00,
2013-04-01 22:43:00,38.0,20.0,-100.00,North,0,3.0,4.0,47,-99.99,,,-99.99,,2013-04-02 03:43:00,
2013-04-01 22:53:00,38.0,20.0,-100.00,NNW,330,3.0,6.0,47,-99.99,,,-99.99,,2013-04-02 03:53:00,
2013-04-01 23:00:00,37.0,19.0,-100.00,NNW,335,4.0,6.0,49,-99.99,,,-99.99,,2013-04-02 04:00:00,
2013-04-01 23:03:00,38.0,20.0,-100.00,NNW,330,3.0,6.0,47,-99.99,,,-99.99,,2013-04-02 04:03:00,
2013-04-01 23:13:00,38.0,20.0,-100.00,NNW,335,4.0,6.0,48,-99.99,,,-99.99,,2013-04-02 04:13:00,
2013-04-01 23:23:00,37.0,20.0,-100.00,NNW,345,4.0,6.0,49,-99.99,,,-99.99,,2013-04-02 04:23:00,
2013-04-01 23:30:00,36.0,19.0,-100.00,NNW,345,4.0,6.0,49,-99.99,,,-99.99,,2013-04-02 04:30:00,
2013-04-01 23:32:00,37.0,20.0,-100.00,NNW,345,4.0,6.0,49,-99.99,,,-99.99,,2013-04-02 04:32:00,
2013-04-01 23:43:00,37.0,19.0,-100.00,NNW,335,4.0,6.0,49,-99.99,,,-99.99,,2013-04-02 04:43:00,
2013-04-01 23:53:00,37.0,19.0,-100.00,NNW,335,4.0,6.0,49,-99.99,,,-99.99,,2013-04-02 04:53:00,